Weather History for KRWL - March, 2013

Change the Weather History Date:

Tuesday, March 12, 2013

  Actual Average Record
Temperature  
Mean Temperature 33 °F 31 °F  
Max Temperature 46 °F 42 °F 59 °F (1989)
Min Temperature 19 °F 20 °F -7 °F (1956)
Degree Days  
Heating Degree Days 32 34  
Month to date heating degree days 394 426  
Since 1 July heating degree days 5995 6383  
Cooling Degree Days 0 0  
Month to date cooling degree days 0 0  
Year to date cooling degree days 0 0  
Moisture  
Dew Point 22 °F    
Average Humidity 68    
Maximum Humidity 96    
Minimum Humidity 40    
Precipitation  
Precipitation 0.00 in 0.02 in 0.28 in (1980)
Month to date precipitation 0.01 0.22  
Year to date precipitation 0.59 1.00  
Sea Level Pressure  
Sea Level Pressure 30.20 in    
Wind  
Wind Speed 12 mph (West)    
Max Wind Speed 30 mph    
Max Gust Speed 40 mph    
Visibility 10 miles    
Events      
T = Trace of Precipitation, MM = Missing Value Source: NWS Daily Summary

Daily Weather History Graph

Daily Weather History Graph

Search for Another Location

Airport or City:

Trip Planner

Search our weather history database for the weather conditions in past years. The results will help you decide how hot, cold, wet, or windy it might be!

Date:

Astronomy

Mar. 12, 2013 Rise Set
Actual Time 7:25 AM MDT 7:12 PM MDT
Civil Twilight 6:57 AM MDT 7:40 PM MDT
Nautical Twilight 6:25 AM MDT 8:12 PM MDT
Astronomical Twilight 5:52 AM MDT 8:45 PM MDT
Moon 7:31 AM MDT (3/12) 8:32 PM MDT (3/12)
Length of Visible Light 12h 42m
Length of Day
11h 47m
New Moon, 1% of the Moon is Illuminated
Mar 12
New Moon
Mar 19
First Quarter
Mar 27
Full
Apr 2
Last Quarter
Apr 10
New

Hourly Weather History & Observations

Time (MDT) Temp. Windchill Dew Point Humidity Pressure Visibility Wind Dir Wind Speed Gust Speed Precip Events Conditions
12:32 AM 23.0 °F - 21.2 °F 93% 30.13 in 10.0 mi Calm Calm - N/A   Scattered Clouds
12:53 AM 19.9 °F - 18.0 °F 92% 30.15 in 10.0 mi Calm Calm - N/A   Mostly Cloudy
1:09 AM 21.2 °F 16.4 °F 17.6 °F 86% 30.13 in 10.0 mi NNW 3.5 mph - N/A   Mostly Cloudy
1:38 AM 21.2 °F 14.9 °F 19.4 °F 93% 30.13 in 10.0 mi North 4.6 mph - N/A   Mostly Cloudy
1:53 AM 23.0 °F - 21.0 °F 92% 30.15 in 10.0 mi Calm Calm - N/A   Overcast
2:03 AM 23.0 °F - 21.2 °F 93% 30.14 in 10.0 mi Calm Calm - N/A   Overcast
2:31 AM 21.2 °F - 19.4 °F 93% 30.15 in 10.0 mi Calm Calm - N/A   Overcast
2:53 AM 24.1 °F - 21.0 °F 88% 30.17 in 10.0 mi Calm Calm - N/A   Overcast
3:53 AM 24.1 °F 17.0 °F 21.0 °F 88% 30.16 in 10.0 mi NE 5.8 mph - N/A   Overcast
4:53 AM 23.0 °F 15.8 °F 19.9 °F 88% 30.18 in 10.0 mi NE 5.8 mph - N/A   Overcast
5:53 AM 21.9 °F - 19.9 °F 92% 30.22 in 10.0 mi Calm Calm - N/A   Overcast
6:53 AM 23.0 °F - 19.9 °F 88% 30.25 in 10.0 mi Calm Calm - N/A   Overcast
7:35 AM 23.0 °F - 19.4 °F 86% 30.20 in 10.0 mi Calm Calm - N/A   Overcast
7:53 AM 24.1 °F - 21.0 °F 88% 30.27 in 10.0 mi Calm Calm - N/A   Overcast
8:53 AM 25.0 °F - 21.0 °F 85% 30.30 in 10.0 mi Calm Calm - N/A   Overcast
9:28 AM 26.6 °F 21.2 °F 21.2 °F 80% 30.21 in 10.0 mi SSW 4.6 mph - N/A   Scattered Clouds
9:53 AM 28.0 °F - 23.0 °F 81% 30.30 in 10.0 mi Calm Calm - N/A   Mostly Cloudy
10:53 AM 35.1 °F 26.9 °F 25.0 °F 67% 30.29 in 10.0 mi WSW 11.5 mph - N/A   Overcast
11:53 AM 39.0 °F 29.0 °F 24.1 °F 55% 30.23 in 10.0 mi West 20.7 mph 27.6 mph N/A   Partly Cloudy
12:53 PM 44.1 °F 35.4 °F 23.0 °F 43% 30.23 in 10.0 mi WSW 21.9 mph 32.2 mph N/A   Mostly Cloudy
1:53 PM 45.0 °F 36.4 °F 23.0 °F 42% 30.20 in 10.0 mi West 23.0 mph 33.4 mph N/A   Mostly Cloudy
2:53 PM 44.1 °F 34.8 °F 21.9 °F 42% 30.18 in 10.0 mi WSW 25.3 mph 32.2 mph N/A   Scattered Clouds
3:53 PM 45.0 °F 37.1 °F 21.9 °F 40% 30.17 in 10.0 mi West 19.6 mph 28.8 mph N/A   Scattered Clouds
4:53 PM 45.0 °F 37.1 °F 23.0 °F 42% 30.18 in 10.0 mi West 19.6 mph 25.3 mph N/A   Mostly Cloudy
5:53 PM 43.0 °F 33.8 °F 21.9 °F 43% 30.18 in 10.0 mi WSW 23.0 mph 33.4 mph N/A   Partly Cloudy
6:53 PM 41.0 °F 33.5 °F 24.1 °F 51% 30.21 in 10.0 mi WSW 13.8 mph - N/A   Overcast
7:53 PM 39.0 °F 32.3 °F 27.0 °F 62% 30.22 in 10.0 mi WSW 10.4 mph - N/A   Mostly Cloudy
8:53 PM 39.0 °F 30.6 °F 25.0 °F 57% 30.23 in 10.0 mi WSW 15.0 mph 20.7 mph N/A   Mostly Cloudy
9:53 PM 37.9 °F 29.2 °F 26.1 °F 62% 30.22 in 10.0 mi WSW 15.0 mph - N/A   Overcast
10:53 PM 39.0 °F 29.0 °F 27.0 °F 62% 30.19 in 10.0 mi WSW 20.7 mph 28.8 mph N/A   Overcast
11:53 PM 37.9 °F 27.9 °F 27.0 °F 65% 30.18 in 10.0 mi WSW 19.6 mph 28.8 mph N/A   Mostly Cloudy